Weather History for KFAM - April, 2013

Change the Weather History Date:

Friday, April 12, 2013

  Actual Average (KCGI) Record (KCGI)
Temperature  
Mean Temperature 44 °F 56 °F  
Max Temperature 53 °F 68 °F 85 °F (1977)
Min Temperature 35 °F 44 °F 29 °F (2012)
Degree Days  
Heating Degree Days 21 10  
Month to date heating degree days 138  
Since 1 July heating degree days 4194  
Cooling Degree Days 0 1  
Month to date cooling degree days 6  
Year to date cooling degree days 10  
Moisture  
Dew Point 29 °F    
Average Humidity 59    
Maximum Humidity 75    
Minimum Humidity 41    
Precipitation  
Precipitation 0.00 in 0.14 in 1.56 in (1966)
Month to date precipitation 1.63  
Year to date precipitation 12.91  
Sea Level Pressure  
Sea Level Pressure 29.88 in    
Wind  
Wind Speed 7 mph (West)    
Max Wind Speed 20 mph    
Max Gust Speed 28 mph    
Visibility 10 miles    
Events      
T = Trace of Precipitation, MM = Missing Value Source: NWS Daily Summary

Daily Weather History Graph

Daily Weather History Graph

Search for Another Location

Airport or City:

Trip Planner

Search our weather history database for the weather conditions in past years. The results will help you decide how hot, cold, wet, or windy it might be!

Date:

Astronomy

Apr. 12, 2013 Rise Set
Actual Time 6:30 AM CDT 7:34 PM CDT
Civil Twilight 6:03 AM CDT 8:01 PM CDT
Nautical Twilight 5:31 AM CDT 8:34 PM CDT
Astronomical Twilight 4:58 AM CDT 9:07 PM CDT
Moon 7:42 AM CDT (4/12) 10:03 PM CDT (4/12)
Length of Visible Light 13h 58m
Length of Day
13h 04m
Waxing Crescent, 5% of the Moon is Illuminated
Apr 12
Waxing Crescent
Apr 18
First Quarter
Apr 25
Full
May 2
Last Quarter
May 9
New

Hourly Weather History & Observations

Time (CDT) Temp. Windchill Dew Point Humidity Pressure Visibility Wind Dir Wind Speed Gust Speed Precip Events Conditions
12:15 AM 41.0 °F 38.0 °F 30.2 °F 65% 29.78 in 10.0 mi SW 4.6 mph - N/A   Overcast
12:35 AM 39.2 °F 35.0 °F 30.2 °F 70% 29.78 in 10.0 mi SW 5.8 mph - N/A   Overcast
12:55 AM 39.2 °F 35.0 °F 28.4 °F 65% 29.78 in 10.0 mi WSW 5.8 mph - N/A   Scattered Clouds
1:15 AM 39.2 °F 35.0 °F 28.4 °F 65% 29.78 in 10.0 mi SW 5.8 mph - N/A   Clear
1:35 AM 37.4 °F 33.8 °F 28.4 °F 70% 29.77 in 10.0 mi SW 4.6 mph - N/A   Clear
1:55 AM 37.4 °F 34.9 °F 28.4 °F 70% 29.77 in 10.0 mi SW 3.5 mph - N/A   Clear
2:15 AM 37.4 °F - 28.4 °F 70% 29.77 in 10.0 mi Calm Calm - N/A   Clear
2:35 AM 37.4 °F 33.8 °F 28.4 °F 70% 29.77 in 10.0 mi West 4.6 mph - N/A   Clear
2:55 AM 37.4 °F 33.8 °F 28.4 °F 70% 29.76 in 10.0 mi West 4.6 mph - N/A   Clear
3:15 AM 37.4 °F 32.8 °F 28.4 °F 70% 29.76 in 10.0 mi West 5.8 mph - N/A   Clear
3:35 AM 37.4 °F 34.9 °F 28.4 °F 70% 29.76 in 10.0 mi West 3.5 mph - N/A   Clear
3:55 AM 37.4 °F 34.9 °F 28.4 °F 70% 29.77 in 10.0 mi West 3.5 mph - N/A   Clear
4:15 AM 35.6 °F - 28.4 °F 75% 29.78 in 10.0 mi Calm Calm - N/A   Clear
4:35 AM 37.4 °F 34.9 °F 28.4 °F 70% 29.78 in 10.0 mi West 3.5 mph - N/A   Clear
4:55 AM 35.6 °F 32.8 °F 28.4 °F 75% 29.78 in 10.0 mi WSW 3.5 mph - N/A   Clear
5:15 AM 37.4 °F - 28.4 °F 70% 29.78 in 10.0 mi Calm Calm - N/A   Scattered Clouds
5:35 AM 35.6 °F 32.8 °F 28.4 °F 75% 29.79 in 10.0 mi West 3.5 mph - N/A   Partly Cloudy
5:55 AM 35.6 °F - 28.4 °F 75% 29.80 in 10.0 mi Calm Calm - N/A   Partly Cloudy
6:15 AM 35.6 °F 31.7 °F 28.4 °F 75% 29.80 in 10.0 mi WSW 4.6 mph - N/A   Scattered Clouds
6:35 AM 35.6 °F 32.8 °F 28.4 °F 75% 29.82 in 10.0 mi WSW 3.5 mph - N/A   Mostly Cloudy
6:55 AM 35.6 °F 32.8 °F 28.4 °F 75% 29.82 in 10.0 mi WSW 3.5 mph - N/A   Scattered Clouds
7:15 AM 35.6 °F 32.8 °F 28.4 °F 75% 29.83 in 10.0 mi WSW 3.5 mph - N/A   Mostly Cloudy
7:35 AM 35.6 °F - 28.4 °F 75% 29.84 in 10.0 mi Calm Calm - N/A   Partly Cloudy
7:55 AM 37.4 °F 33.8 °F 30.2 °F 75% 29.84 in 10.0 mi West 4.6 mph - N/A   Partly Cloudy
8:15 AM 39.2 °F 33.6 °F 28.4 °F 65% 29.84 in 10.0 mi West 8.1 mph - N/A   Partly Cloudy
8:35 AM 39.2 °F 33.0 °F 28.4 °F 65% 29.84 in 10.0 mi WSW 9.2 mph - N/A   Mostly Cloudy
8:55 AM 39.2 °F 34.2 °F 30.2 °F 70% 29.83 in 10.0 mi WNW 6.9 mph - N/A   Scattered Clouds
9:15 AM 41.0 °F 33.1 °F 28.4 °F 61% 29.84 in 10.0 mi West 15.0 mph 20.7 mph N/A   Partly Cloudy
9:55 AM 42.8 °F 36.2 °F 30.2 °F 61% 29.85 in 10.0 mi West 12.7 mph - N/A   Mostly Cloudy
10:15 AM 42.8 °F 36.2 °F 28.4 °F 57% 29.85 in 10.0 mi WSW 12.7 mph 18.4 mph N/A   Scattered Clouds
10:35 AM 44.6 °F 38.8 °F 28.4 °F 53% 29.86 in 10.0 mi West 11.5 mph 17.3 mph N/A   Partly Cloudy
10:55 AM 46.4 °F 40.4 °F 28.4 °F 50% 29.86 in 10.0 mi West 13.8 mph 19.6 mph N/A   Partly Cloudy
11:15 AM 46.4 °F 39.0 °F 28.4 °F 50% 29.87 in 10.0 mi WSW 19.6 mph 25.3 mph N/A   Scattered Clouds
11:35 AM 48.2 °F - 28.4 °F 46% 29.87 in 10.0 mi West 17.3 mph 27.6 mph N/A   Mostly Cloudy
11:55 AM 48.2 °F - 28.4 °F 46% 29.88 in 10.0 mi West 15.0 mph 21.9 mph N/A   Partly Cloudy
12:15 PM 48.2 °F - 28.4 °F 46% 29.88 in 10.0 mi West 13.8 mph 20.7 mph N/A   Partly Cloudy
12:35 PM 48.2 °F - 28.4 °F 46% 29.88 in 10.0 mi WNW 16.1 mph 20.7 mph N/A   Scattered Clouds
12:55 PM 48.2 °F - 28.4 °F 46% 29.88 in 10.0 mi West 15.0 mph 19.6 mph N/A   Partly Cloudy
1:15 PM 50.0 °F - 28.4 °F 43% 29.88 in 10.0 mi WSW 11.5 mph 20.7 mph N/A   Scattered Clouds
1:35 PM 50.0 °F - 28.4 °F 43% 29.89 in 10.0 mi West 11.5 mph 21.9 mph N/A   Scattered Clouds
1:55 PM 51.8 °F - 28.4 °F 41% 29.89 in 10.0 mi WNW 12.7 mph 19.6 mph N/A   Partly Cloudy
2:15 PM 51.8 °F - 28.4 °F 41% 29.90 in 10.0 mi WNW 18.4 mph 23.0 mph N/A   Clear
2:35 PM 51.8 °F - 28.4 °F 41% 29.90 in 10.0 mi West 10.4 mph 19.6 mph N/A   Clear
2:55 PM 51.8 °F - 28.4 °F 41% 29.91 in 10.0 mi WNW 10.4 mph 19.6 mph N/A   Scattered Clouds
3:15 PM 51.8 °F - 28.4 °F 41% 29.90 in 10.0 mi West 10.4 mph 20.7 mph N/A   Partly Cloudy
3:35 PM 53.6 °F - 30.2 °F 41% 29.91 in 10.0 mi West 11.5 mph 18.4 mph N/A   Clear
3:55 PM 53.6 °F - 30.2 °F 41% 29.90 in 10.0 mi West 15.0 mph 21.9 mph N/A   Partly Cloudy
4:15 PM 53.6 °F - 30.2 °F 41% 29.90 in 10.0 mi WNW 10.4 mph 16.1 mph N/A   Partly Cloudy
4:35 PM 53.6 °F - 30.2 °F 41% 29.91 in 10.0 mi West 8.1 mph 20.7 mph N/A   Partly Cloudy
4:55 PM 51.8 °F - 30.2 °F 44% 29.91 in 10.0 mi NNW 10.4 mph - N/A   Partly Cloudy
5:15 PM 51.8 °F - 30.2 °F 44% 29.92 in 10.0 mi NNW 11.5 mph - N/A   Clear
5:35 PM 51.8 °F - 30.2 °F 44% 29.93 in 10.0 mi NW 9.2 mph 17.3 mph N/A   Clear
5:55 PM 51.8 °F - 30.2 °F 44% 29.93 in 10.0 mi NNW 11.5 mph 18.4 mph N/A   Clear
6:15 PM 50.0 °F - 28.4 °F 43% 29.94 in 10.0 mi NNW 11.5 mph - N/A   Clear
6:35 PM 48.2 °F - 28.4 °F 46% 29.95 in 10.0 mi NW 11.5 mph - N/A   Clear
6:55 PM 48.2 °F - 28.4 °F 46% 29.96 in 10.0 mi NW 10.4 mph - N/A   Clear
7:15 PM 46.4 °F 41.5 °F 28.4 °F 50% 29.96 in 10.0 mi NNW 10.4 mph - N/A   Clear
7:35 PM 46.4 °F 41.5 °F 28.4 °F 50% 29.97 in 10.0 mi NNW 10.4 mph - N/A   Clear
7:55 PM 44.6 °F 40.2 °F 28.4 °F 53% 29.98 in 10.0 mi NNW 8.1 mph - N/A   Clear
8:15 PM 42.8 °F 37.5 °F 28.4 °F 57% 29.99 in 10.0 mi NNW 9.2 mph - N/A   Clear
8:35 PM 42.8 °F 38.6 °F 28.4 °F 57% 30.00 in 10.0 mi NNW 6.9 mph - N/A   Clear
8:55 PM 41.0 °F 36.4 °F 28.4 °F 61% 30.01 in 10.0 mi North 6.9 mph - N/A   Clear
9:15 PM 41.0 °F 39.0 °F 28.4 °F 61% 30.01 in 10.0 mi North 3.5 mph - N/A   Clear
9:35 PM 39.2 °F - 28.4 °F 65% 30.02 in 10.0 mi Calm Calm - N/A   Clear
9:55 PM 39.2 °F - 28.4 °F 65% 30.03 in 10.0 mi Calm Calm - N/A   Clear
10:15 PM 39.2 °F - 26.6 °F 61% 30.03 in 10.0 mi Calm Calm - N/A   Clear
10:35 PM 39.2 °F - 26.6 °F 61% 30.04 in 10.0 mi Calm Calm - N/A   Clear
10:55 PM 37.4 °F - 28.4 °F 70% 30.04 in 10.0 mi Calm Calm - N/A   Clear
11:15 PM 39.2 °F - 28.4 °F 65% 30.05 in 10.0 mi Calm Calm - N/A   Clear
11:35 PM 35.6 °F - 28.4 °F 75% 30.05 in 10.0 mi Calm Calm - N/A   Clear
11:55 PM 35.6 °F - 28.4 °F 75% 30.06 in 10.0 mi Calm Calm - N/A   Clear